Flag for Norway Weather past 2 weeks in Vadsø, Norway

Now
21 °F

Passing clouds.


Feels Like: 11 °F
Forecast: 13 / 24 °F
Wind: 9 mph from Southeast

Location: Vadso

Current Time: Jan 30, 2015 at 8:16:10 AM

Latest Report: Jan 30, 2015 at 6:50 AM


Visibility: N/A

Pressure: 29.53 "Hg

Humidity: 63%

Dew point: 10 °F

Location of VadsøLocation

Historic Weather in Vadsø — Graph

°F

Vadsø temperature yesterday

Maximum temperature yesterday: 19 °F (at 4:50 AM)
Minimum temperature yesterday: 10 °F (at 1:50 PM)
Average temperature yesterday: 14 °F

Past Weeks' High & Low Weather Summary

 TemperatureHumidityPressure
High32 °F (Jan 26, 5:50 PM)100% (Jan 16, 8:50 AM)30.39 "Hg (Jan 16, 8:50 AM)
Low5 °F (Jan 24, 11:50 AM)57% (Jan 23, 7:50 PM)29.00 "Hg (Jan 16, 10:50 PM)
Average20 °F82%29.71 "Hg
* Reported Jan 15 6:50 AM — Jan 30 6:50 AM, Vadsø, Weather by CustomWeather, © 2014

Note: Actual official high and low records may vary slightly from our data, if they occured in-between our weather recording intervals... More about our weather records

Advertising

Vadsø weather history for previous 24 hours

 ConditionsComfort  
Time TempWeatherWind HumidityBarometerVisibility
6:50 AM
Jan 30
21 °FPassing clouds.9 mph63%29.53 "HgN/A
5:50 AM19 °FScattered showers. Passing clouds.16 mph86%29.53 "HgN/A
4:50 AM19 °FSnow flurries. Partly cloudy.16 mph86%29.53 "HgN/A
12:20 AM16 °FPartly cloudy.15 mph73%29.53 "Hg6 mi
11:50 PM
Jan 29
14 °FPassing clouds.17 mph79%29.53 "HgN/A
10:50 PM14 °FClear.17 mph79%29.53 "Hg10 mi
8:50 PM12 °FClear.14 mph79%29.50 "Hg10 mi
7:50 PM12 °FClear.14 mph79%29.50 "Hg10 mi
5:50 PM12 °FClear.14 mph73%29.50 "Hg10 mi
4:50 PM12 °FClear.14 mph79%29.50 "Hg10 mi
3:50 PM12 °FScattered showers. Passing clouds.17 mph85%29.47 "HgN/A
2:50 PM10 °FScattered showers. Passing clouds.12 mph85%29.47 "HgN/A
1:50 PM10 °FScattered showers. Passing clouds.15 mph72%29.47 "HgN/A
12:50 PM12 °FScattered showers. Passing clouds.14 mph73%29.47 "HgN/A
11:20 AM14 °FLow level haze.17 mph73%29.45 "HgN/A
9:50 AM14 °FScattered showers. Low level haze.23 mph73%29.42 "HgN/A
8:50 AM16 °FScattered showers. Low level haze.22 mph79%29.42 "HgN/A
Weather by CustomWeather, © 2014

See weather overviewHow to use our weather pages